Overview Statistics Trail Chart Weather Telemetry Raw packets
 

This is the latest recevied weather packets stored in our database for station/object K4IR. If no packets are shown the sender has not sent any weather packets the latest 10 day(s).

<< 43 44 45 46 47 48 49 >>
Time Temp. Humidity Pressure Rain* Wind** Luminosity Snow
1787967811 24.44° C 97% 1018.3 hPa 0 mm - 0 W/m² -
1787967217 24.44° C 97% 1018.5 hPa 0 mm - 0 W/m² -
1787966607 25° C 97% 1018.3 hPa 0 mm - 0 W/m² -
1787966008 25° C 97% 1018.3 hPa 0 mm - 0 W/m² -
1787965402 25° C 97% 1018.2 hPa 0 mm - 0 W/m² -
1787964803 25° C 96% 1018.1 hPa 0 mm - 0 W/m² -
1787964199 25° C 96% 1018 hPa 0 mm - 0 W/m² -
1787963599 25° C 96% 1017.9 hPa 0 mm - 0 W/m² -
1787962993 25° C 95% 1017.8 hPa 0 mm - 0 W/m² -
1787962394 25° C 95% 1017.9 hPa 0 mm - 0 W/m² -
1787961792 25.56° C 95% 1017.8 hPa 0 mm - 0 W/m² -
1787961190 25.56° C 94% 1017.7 hPa 0 mm - 0 W/m² -
1787960591 25.56° C 93% 1017.4 hPa 0 mm - 1 W/m² -
1787959990 26.11° C 92% 1017.5 hPa 0 mm - 5 W/m² -
1787959386 26.11° C 91% 1017.3 hPa 0 mm - 10 W/m² -
1787958781 26.67° C 91% 1017.6 hPa 0 mm - 15 W/m² -
1787958179 26.67° C 90% 1017.4 hPa 0 mm - 24 W/m² -
1787957578 26.67° C 89% 1017.2 hPa 0 mm - 36 W/m² -
1787956973 26.67° C 89% 1017 hPa 0 mm - 41 W/m² -
1787956374 27.22° C 87% 1016.9 hPa 0 mm - 61 W/m² -
1787955770 27.22° C 88% 1017.1 hPa 0 mm - 95 W/m² -
1787955170 26.67° C 88% 1017 hPa 0 mm - 86 W/m² -
1787954568 26.67° C 89% 1017.2 hPa 0 mm - 61 W/m² -
1787953968 26.67° C 88% 1017.1 hPa 0 mm - 59 W/m² -
1787953368 27.22° C 88% 1017 hPa 0 mm - 58 W/m² -

* Rain latest hour (hover to see other rain measurements)
** Current wind speed in m/s (hover to see current wind gust speed)